Location: Launay
(47.2429°N, 1.5727°E)
Time: 20:39:53
(UTC+00:00)

Cosmos 2221 - Pass Details

Date: 19 May 2025
Orbit: 572 x 593 km, 82.5° (Epoch: 21 June)

Event Time Altitude Azimuth Distance (km) Brightness Sun altitude
Exits shadow 21:37:47 32° 163° (SSE) 1,014 3.1 -16.5°
Maximum altitude 21:39:34 61° 95° (E) 661 2.5 -16.6°
Drops below altitude 10° 21:43:41 10° 16° (NNE) 1,896 5.6 -17.0°
Sets 21:45:53 0° 13° (NNE) 2,798 6.7 -17.2°
